KD2FKI Weather Reports


time (UTC)temp
F
wind
direction
speed
knots
gust
knots
rain 1hr
in
rain 24hr
in
rain mn
in
humidity
%
barometer
mb
20260507174045 68 0.0 0.0 0.00 0.02 0.02 43
20260507173035 69 0.0 0.0 0.00 0.02 0.02 44
20260507172042 68 0.0 0.0 0.00 0.02 0.02 45
20260507171033 67 0.0 0.0 0.00 0.02 0.02 47
20260507170043 65 0.0 0.0 0.00 0.02 0.02 48
20260507165030 65 0.0 0.0 0.00 0.02 0.02 48
20260507164056 64 0.0 0.0 0.00 0.02 0.02 49
20260507163047 63 0.0 0.0 0.00 0.02 0.02 50
20260507162035 62 0.0 0.0 0.00 0.02 0.02 50
20260507161102 62 0.0 0.0 0.00 0.02 0.02 51
20260507160053 59 0.0 0.0 0.00 0.02 0.02 56
20260507155136 58 0.0 0.0 0.00 0.02 0.02 54
20260507154031 58 0.0 0.0 0.00 0.02 0.02 55
20260507153040 57 0.0 0.0 0.00 0.02 0.02 57
20260507152046 57 0.0 0.0 0.00 0.02 0.02 56
20260507151037 57 0.0 0.0 0.00 0.02 0.02 56
20260507150045 57 0.0 0.0 0.00 0.02 0.02 57
20260507145052 57 0.0 0.0 0.00 0.03 0.02 59
20260507144041 56 0.0 0.0 0.00 0.04 0.02 60
20260507143033 56 0.0 0.0 0.00 0.04 0.02 61
20260507142038 55 0.0 0.0 0.00 0.04 0.02 61
20260507141047 55 0.0 0.0 0.00 0.04 0.02 63
20260507140038 55 0.0 0.0 0.00 0.05 0.02 63
20260507135044 55 0.0 0.0 0.00 0.06 0.02 63
20260507134033 55 0.0 0.0 0.00 0.06 0.02 65
20260507133042 55 0.0 0.0 0.00 0.08 0.02 66
20260507132032 54 0.0 0.0 0.00 0.10 0.02 68
20260507131040 54 0.0 0.0 0.00 0.12 0.02 69
20260507130029 54 0.0 0.0 0.00 0.14 0.02 69
20260507125037 54 0.0 0.0 0.00 0.15 0.02 69
20260507124050 54 0.0 0.0 0.00 0.16 0.02 71
20260507123034 54 0.0 0.0 0.00 0.16 0.02 71
20260507122045 54 0.0 0.0 0.00 0.17 0.02 72
20260507121032 54 0.0 0.0 0.00 0.18 0.02 71
20260507120042 54 0.0 0.0 0.00 0.19 0.02 71
20260507115030 54 0.0 0.0 0.00 0.20 0.02 73
20260507114043 54 0.0 0.0 0.00 0.20 0.02 75
20260507113046 54 0.0 0.0 0.00 0.20 0.02 77
20260507112040 54 0.0 0.0 0.00 0.20 0.02 77
20260507111043 54 0.0 0.0 0.00 0.20 0.02 78
20260507110036 54 0.0 0.0 0.00 0.20 0.02 77
20260507105041 54 0.0 0.0 0.00 0.20 0.02 77
20260507104036 54 0.0 0.0 0.00 0.20 0.02 78
20260507103040 54 0.0 0.0 0.00 0.20 0.02 79
20260507102049 54 0.0 0.0 0.00 0.20 0.02 79
20260507101055 54 0.0 0.0 0.00 0.20 0.02 81
20260507100044 54 0.0 0.0 0.00 0.20 0.02 83
20260507095033 54 0.0 0.0 0.00 0.20 0.02 84
20260507094100 54 0.0 0.0 0.00 0.20 0.02 84
20260507093031 54 0.0 0.0 0.00 0.20 0.02 84
20260507092041 54 0.0 0.0 0.00 0.20 0.02 84
20260507091105 54 0.0 0.0 0.00 0.20 0.02 86
20260507090209 54 0.0 0.0 0.00 0.20 0.02 87
20260507085044 55 0.0 0.0 0.00 0.20 0.02 87
20260507084036 55 0.0 0.0 0.00 0.20 0.02 87
20260507083041 55 0.0 0.0 0.00 0.20 0.02 88
20260507082034 54 0.0 0.0 0.00 0.20 0.02 89
20260507081039 54 0.0 0.0 0.00 0.20 0.02 90
20260507080032 54 0.0 0.0 0.00 0.20 0.02 92
20260507075037 54 0.0 0.0 0.00 0.20 0.02 94
20260507074045 54 0.0 0.0 0.00 0.20 0.02 94
20260507073034 54 0.0 0.0 0.00 0.20 0.02 94
20260507072042 54 0.0 0.0 0.00 0.20 0.02 93
20260507071033 54 0.0 0.0 0.00 0.20 0.02 93
20260507070058 54 0.0 0.0 0.00 0.20 0.02 92
20260507065030 55 0.0 0.0 0.00 0.20 0.02 91
20260507064040 55 0.0 0.0 0.00 0.20 0.02 92
20260507063045 55 0.0 0.0 0.00 0.20 0.02 93
20260507062035 55 0.0 0.0 0.00 0.20 0.02 95
20260507061043 55 0.0 0.0 0.00 0.20 0.02 96
20260507060053 55 0.0 0.0 0.02 0.20 0.02 96
20260507055040 56 0.0 0.0 0.02 0.20 0.02 97
20260507054048 56 0.0 0.0 0.02 0.20 0.02 97
20260507053037 56 0.0 0.0 0.02 0.20 0.02 97
20260507052105 56 0.0 0.0 0.02 0.20 0.02 97
20260507051035 57 0.0 0.0 0.02 0.20 0.02 96
20260507050043 57 0.0 0.0 0.00 0.18 0.00 95
20260507045033 58 0.0 0.0 0.00 0.18 0.00 94
20260507044041 58 0.0 0.0 0.00 0.18 0.00 90
20260507043031 58 0.0 0.0 0.00 0.18 0.00 88
20260507042038 59 0.0 0.0 0.00 0.18 0.00 89
20260507041051 59 0.0 0.0 0.00 0.18 0.00 87
20260507040036 60 0.0 0.0 0.00 0.18 0.00 84
20260507035048 61 0.0 0.0 0.00 0.18 0.18 85
20260507034052 61 0.0 0.0 0.00 0.18 0.18 85
20260507033046 61 0.0 0.0 0.00 0.18 0.18 85
20260507032031 62 0.0 0.0 0.00 0.18 0.18 83
20260507031042 62 0.0 0.0 0.00 0.18 0.18 81
20260507030047 62 0.0 0.0 0.00 0.18 0.18 80
20260507025042 63 0.0 0.0 0.00 0.18 0.18 80
20260507024044 63 0.0 0.0 0.00 0.18 0.18 81
20260507023038 63 0.0 0.0 0.00 0.18 0.18 81
20260507022044 64 0.0 0.0 0.00 0.18 0.18 82
20260507021036 64 0.0 0.0 0.00 0.18 0.18 82
20260507020039 64 0.0 0.0 0.00 0.18 0.18 83
20260507015049 65 0.0 0.0 0.00 0.18 0.18 85
20260507014037 66 0.0 0.0 0.00 0.18 0.18 87
20260507013047 66 0.0 0.0 0.00 0.18 0.18 87
20260507012035 66 0.0 0.0 0.00 0.18 0.18 86
20260507011044 67 0.0 0.0 0.00 0.18 0.18 85
20260507010032 67 0.0 0.0 0.00 0.18 0.18 82
20260507005042 68 0.0 0.0 0.00 0.18 0.18 83
20260507004029 68 0.0 0.0 0.00 0.18 0.18 86
20260507003039 69 0.0 0.0 0.00 0.18 0.18 86
20260507002044 69 0.0 0.0 0.00 0.18 0.18 86
20260507001037 69 0.0 0.0 0.00 0.18 0.18 84
20260507000043 70 0.0 0.0 0.00 0.18 0.18 83
20260506235034 70 0.0 0.0 0.00 0.18 0.18 82
20260506234039 70 0.0 0.0 0.00 0.18 0.18 82
20260506233032 70 0.0 0.0 0.00 0.18 0.18 81
20260506232037 71 0.0 0.0 0.00 0.18 0.18 80
20260506231046 71 0.0 0.0 0.00 0.18 0.18 80
20260506230035 71 0.0 0.0 0.00 0.18 0.18 80
20260506225043 72 0.0 0.0 0.00 0.18 0.18 79
20260506224034 72 0.0 0.0 0.00 0.18 0.18 79
20260506223040 71 0.0 0.0 0.00 0.18 0.18 79
20260506222030 72 0.0 0.0 0.00 0.18 0.18 78
20260506221038 73 0.0 0.0 0.00 0.18 0.18 77
20260506220053 73 0.0 0.0 0.00 0.18 0.18 77
20260506215053 72 0.0 0.0 0.00 0.18 0.18 78
20260506214044 72 0.0 0.0 0.00 0.18 0.18 78
20260506213054 72 0.0 0.0 0.00 0.18 0.18 79
20260506212040 72 0.0 0.0 0.00 0.18 0.18 78
20260506211031 72 0.0 0.0 0.00 0.18 0.18 79
20260506205046 73 0.0 0.0 0.00 0.18 0.18 77
20260506204036 73 0.0 0.0 0.00 0.18 0.18 77
20260506203046 71 0.0 0.0 0.00 0.18 0.18 79
20260506202035 72 0.0 0.0 0.00 0.18 0.18 78
20260506201041 72 0.0 0.0 0.00 0.18 0.18 78
20260506200031 71 0.0 0.0 0.00 0.18 0.18 79
20260506194047 71 0.0 0.0 0.00 0.18 0.18 79
20260506193038 71 0.0 0.0 0.00 0.18 0.18 80
20260506192044 71 0.0 0.0 0.00 0.18 0.18 78
20260506191034 72 0.0 0.0 0.00 0.18 0.18 77
20260506190046 71 0.0 0.0 0.00 0.18 0.18 79
20260506185032 70 0.0 0.0 0.00 0.18 0.18 80
20260506184039 69 0.0 0.0 0.00 0.18 0.18 81
20260506183032 68 0.0 0.0 0.00 0.18 0.18 83
20260506182057 68 0.0 0.0 0.00 0.18 0.18 84
20260506181045 68 0.0 0.0 0.00 0.18 0.18 84
20260506180039 68 0.0 0.0 0.00 0.18 0.18 83
20260506175042 68 0.0 0.0 0.00 0.18 0.18 83